OBJECT A, 67248

Orbit data source: Space-Track

You're viewing an Uncataloged Satellite

Recently launched and/or uncataloged satellites may have evolving metadata. Metadata may include but not limited to: Owner, Maufacturer, Bus, Motor, and Mission.

OBJECT A, 67248 is a satellite in SSO that was launched on Sun, 28 Dec 2025 UTC launched from the Vostochny Cosmodrome (VOSTO). Unknown objects in Earth's orbit typically refer to objects detected orbiting the Earth but have not yet been identified or cataloged. These objects could be anything from previously untracked satellites, spent rocket stages, debris from satellite collisions, or even natural meteoroids temporarily captured by Earth's gravity.

Loading next visibility...
Identifier
67248, 2025-313A
Orbit
SSO
Country
Flag of TBDTBD
Related business
Manufacturer
Lavochkin
Mission
Operational spacecraft
Bus & Motor
FREGAT, Unknown motor
Mass
1,624 kg wet, 1,000 kg dry
Launch date (UTC)
2025-12-28 (6 months ago)
Launch vehicle
Unknown
Launch site
Vostochny Cosmodrome (VOSTO)
Object type
Unknown
Shape & HBR
Cyl, 1.7 m
Radar Cross Section
8.354 m², Large (>1 m²)

Expand to show TLE details & history
Last TLE update: 16 hours ago

TLE from 16 hours ago
0 OBJECT A
1 67248U 25313A   26171.19295889  .00000585  00000-0  64686-4 0  9991
2 67248  97.5425 235.3259 0276648 327.4089  31.0297 14.67280297 25461
Epoch: 2026-06-20T04:37Z
TLE epoch observation values (Epoch: 2026-06-20T04:37:51.648Z)
Latitude
0.00001°
Longitude
-102.5504°
Altitude
507.156 km
Speed
7.699 km/s
True Right ascension
15h 41m 18s
True Declination
0° 00' 00"
Sunlit
Object was in full shadow at epoch
Visualization orbit readout
Latitude
Unknown
Longitude
Unknown
Altitude
Unknown
Speed
Unknown
Apparent Right ascension
Unknown
Apparent Declination
Unknown
Sunlit
N/A
Visualization observer readout
Local Sidereal Time
07:20:25
Azimuth
Unknown
Elevation
Unknown
Doppler factor
Unknown
Orbital elements
Apogee altitude
861.7 km
Perigee altitude
471.906 km
Semi-major axis
7,044.94 km
Eccentricity
0.02766
Inclination
97.5425°
RAAN
235.3259°
Arg. of periapsis
327.4089°
True anomaly
32.71345°
Mean anomaly
31.0297°
Eccentric anomaly
31.86653°
Mean motion
3.67052 °/min
Orbital period
98.08 mins
BSTAR
0.000064686
Loading maneuver chart data...
Computing Atmospheric mass density...
Loading historical data...
Loading historical data...
Loading historical data...
Loading historical data...
Loading historical data...
Loading historical data...
Loading historical data...

Documentation

Showing up to 5 results
|